This is the latest recevied weather packets stored in our database for station/object N4PWG. If no packets are shown the sender has not sent any weather packets the latest 1 day(s).
| Time | Temp. | Humidity | Pressure | Rain* | Wind** | Luminosity | Snow |
|---|---|---|---|---|---|---|---|
| 1778077063 | 10.56° C | 90% | 1031.4 hPa | 0 mm | - | 146 W/m² | - |
| 1778076761 | 10.56° C | 91% | 1031.4 hPa | 0 mm | - | 132 W/m² | - |
| 1778076155 | 10° C | 92% | 1031.5 hPa | 0 mm | - | 121 W/m² | - |
| 1778075548 | 10° C | 91% | 1031.3 hPa | 0 mm | - | 104 W/m² | - |
| 1778075245 | 10° C | 92% | 1031.1 hPa | 0 mm | - | 103 W/m² | - |
| 1778074335 | 10° C | 92% | 1030.8 hPa | 0 mm | - | 78 W/m² | - |
| 1778073729 | 9.44° C | 92% | 1030.7 hPa | 0 mm | - | 88 W/m² | - |
| 1778073427 | 9.44° C | 93% | 1030.7 hPa | 0 mm | - | 64 W/m² | - |
| 1778073123 | 9.44° C | 93% | 1030.7 hPa | 0 mm | - | 81 W/m² | - |
| 1778072820 | 9.44° C | 93% | 1030.3 hPa | 0 mm | - | 76 W/m² | - |
| 1778071005 | 8.89° C | 95% | 1030 hPa | 0 mm | - | 43 W/m² | - |
| 1778070704 | 8.89° C | 94% | 1030 hPa | 0 mm | - | 52 W/m² | - |
| 1778070098 | 8.89° C | 94% | 1029.7 hPa | 0 mm | - | 49 W/m² | - |
| 1778069492 | 8.89° C | 96% | 1029.3 hPa | 0 mm | - | 37 W/m² | - |
| 1778069190 | 8.89° C | 97% | 1029.1 hPa | 0 mm | - | 36 W/m² | - |
| 1778067980 | 8.89° C | 97% | 1029.3 hPa | 0 mm | - | 14 W/m² | - |
| 1778067678 | 8.89° C | 99% | 1029.1 hPa | 0 mm | - | 12 W/m² | - |
| 1778067376 | 8.89° C | 98% | 1029.3 hPa | 0 mm | - | 7 W/m² | - |
| 1778065862 | 9.44° C | 99% | 1029.2 hPa | 0 mm | - | 0 W/m² | - |
| 1778064650 | 9.44° C | 99% | 1029.5 hPa | 0 mm | - | 0 W/m² | - |
| 1778063742 | 9.44° C | 99% | 1028.9 hPa | 0 mm | - | 0 W/m² | - |
| 1778063439 | 10° C | 99% | 1029.1 hPa | 0 mm | - | 0 W/m² | - |
| 1778061323 | 10° C | 99% | 1028 hPa | 0 mm | - | 0 W/m² | - |
| 1778060717 | 10° C | 99% | 1028.4 hPa | 0 mm | - | 0 W/m² | - |
| 1778058297 | 10° C | 99% | 1027.5 hPa | 0 mm | - | 0 W/m² | - |
* Rain latest hour (hover to see other rain measurements)
** Current wind speed in m/s (hover to see current wind gust speed)